Regional Weather Roundup
Issued by NWS Newport/Morehead, NC

Current Version | Previous Version | Text Only | Print | Product List | Glossary On
Versions: 1 2 3 4 5 6 7 8 9 10 11 12 13 14 15 16 17 18 19 20 21 22 23 24 25 26 27 28 29 30 31 32 33 34 35 36 37 38 39 40 41 42 43 44 45 46 47 48 49 50
000
ASUS42 KMHX 270025
RWRMHX
WEATHER ROUNDUP FOR EASTERN NORTH CAROLINA
NATIONAL WEATHER SERVICE NEWPORT/MOREHEAD CITY NC
800 PM EDT SUN MAR 26 2017

NOTE: "FAIR" INDICATES FEW OR NO CLOUDS BELOW 12,000 FEET
WITH NO SIGNIFICANT WEATHER AND/OR OBSTRUCTIONS TO VISIBILITY

NCZ015>017-031-032-045>047-102-103-270100-
NORTH COAST

CITY           SKY/WX    TMP DP  RH WIND       PRES   REMARKS
EDENTON        PTCLDY    68  54  61 S8        30.19S
ELIZABETH CITY CLEAR     59  53  80 SE7       30.20S
KITTY HAWK     NOT AVBL
MANTEO         PTCLDY    60  54  81 SE7       30.23S

$$

NCZ045>047-081-094-103-104-270100-
CENTRAL COAST

CITY           SKY/WX    TMP DP  RH WIND       PRES   REMARKS
FRISCO         MOCLDY    67  57  70 SE3       30.22S

$$

NCZ095-097-098-100-101-270100-
SOUTHERN COAST

CITY           SKY/WX    TMP DP  RH WIND       PRES   REMARKS
BEAUFORT       CLOUDY    68  57  68 SE10G17   30.21S
CEDAR ISLAND   NOT AVBL
JACKSONVILLE   PTCLDY    65  56  72 S5        30.18S
PINEY ISLAND   PTCLDY   N/A N/A N/A SE6       30.21S
WILMINGTON     CLEAR     66  54  65 S5        30.18S


$$

NCZ011>013-027>030-043-044-078>080-089-090>093-098-270100-
COASTAL PLAIN

CITY           SKY/WX    TMP DP  RH WIND       PRES   REMARKS
AHOSKIE          N/A     66  54  65 SE3       30.18R
CLINTON        CLEAR     68  56  66 SE5       30.16R
ELIZABETHTOWN  CLEAR     68  56  65 S6        30.17R
GOLDSBORO      CLEAR     69  52  53 S6        30.15R
GREENVILLE     CLEAR     70  52  52 S8        30.19R
HAVELOCK       NOT AVBL
KENANSVILLE    CLEAR     66  52  59 SE5       30.17S
KINSTON        PTCLDY    68  52  56 S8        30.18R
NEW BERN       CLEAR     66  54  65 S5        30.20S
RICHLANDS      PTCLDY    66  55  67 S6        30.19R
ROCKY MOUNT    PTCLDY    67  53  61 CALM      30.16R
WASHINGTON     PTCLDY    66  56  69 SE7       30.19R
WHITEVILLE     CLEAR     68  53  58 SE6       30.16S

$$

AMZ130-135-150-152-154-156-158-170-250-252-270-ANZ085-086-088-633-658-670-270100-
MARINE OBSERVATIONS

STATION/POSITION TIME  TEMP    WIND        PRES    WAVE   SWELL
                       AIR SEA DIR/SP/G            HT/PER HT/PER
                 (UTC) (F)     (DEG/KT/KT) (MB)    (FT/S) (FT/S)
CHESAPEAKE LIGHT NOT AVBL
64 E VA BEACH    2350   56 51  100/  6/  6 1023.7    3/ 7   3/ 7
DUCK             0000   53 47  140/ 11/ 12 1022.7
2 E DUCK         0000      52                N/A     2/20
OREGON INLET     0000   57 60   80/  5/  6 1023.6
13E OREGON INLT  2348      52                N/A     2/ 8   2/ 8
HATTERAS CG      0000   68 60  160/  5/  7 1023.3
DIAMOND BUOY     2350   70 76  150/ 10/ 14 1023.4    3/ 8   3/ 8
CAPE LOOKOUT     0000   66     180/  5/  5 1022.9
BEAUFORT LAB     0000   66 58  140/ 10/ 13 1022.0
30 SE NEW RVR IN 0008   67     140/  6/  8 1022.7
30 SE NEW RVR IN 2343      65                N/A     3/ 8   2/11
27 SE WRIGHTSVLE 0008   67 63  180/  8/ 12 1021.7
5 SE WRIGHTSVLE  0008   64 62  150/  8/ 12 1021.8
225 S CAPE HAT   2350   68 72   80/ 10/ 12 1022.9    5/ 8   5/ 8
41 SE CHARLESTON 2350   72 74  140/ 12/ 16 1020.6    4/ 8   3/ 8

$$




USA.gov is the U.S. government's official web portal to all federal, state and local government web resources and services.